Date String (YYYY-MM-DD hh:mm:ss) UTC,Instrument flags,absolute air pressure of the measurement (hPa),sample flow rate (lpm),inlet stack bypass flow (lpm),air temperature of the measurement (°C),ambient temperature measured by the external sensor (°C),aerosol sample conditioner tube jacket temperature (°C),OPC LED temperature (°C),internal box temperature (°C),relative humidity of the measurement (%),span deviation,mass concentration of particles derived from Lorenz-Mie calculation of OPC scattering (μg/m³),mass concentration of particles derived from Lorenz-Mie calculation of OPC scattering (μg/m³),mass concentration of particles derived from Lorenz-Mie calculation of OPC scattering (μg/m³)
DateTimeUTC,F1_M11,P_M11,Q1_M11,Q2_M11,T1_M11,T2_M11,T3_M11,T4_M11,T5_M11,U1_M11,ZSPAN_M11,X2_M11,X0_M11,X1_M11
2024-03-25 06:00:00,SystemResetWarning,0815.8,5.00,000.00,019.0,019.2,000.0,027.6,021.3,16.5,0000.0,0004.12,0006.62,0003.94
2024-03-25 06:01:00,SystemResetWarning,0815.8,4.98,000.00,019.0,019.1,000.0,027.6,021.2,16.3,0000.0,0004.12,0006.61,0003.95
2024-03-25 06:02:00,SystemResetWarning,0815.8,5.01,000.00,019.0,018.9,000.0,027.5,021.1,16.3,0000.0,0004.13,0006.66,0003.96
2024-03-25 06:03:00,SystemResetWarning,0815.8,5.01,000.00,019.0,018.8,000.0,027.5,021.0,16.3,0000.0,0004.13,0006.95,0003.95
2024-03-25 06:04:00,SystemResetWarning,0815.8,5.01,000.00,019.0,018.6,000.0,027.5,020.9,16.3,0000.0,0004.14,0007.21,0003.95
2024-03-25 06:05:00,SystemResetWarning,0815.8,4.99,000.00,019.0,018.5,000.0,027.5,020.8,16.4,0000.0,0004.12,0007.18,0003.94
2024-03-25 06:06:00,SystemResetWarning,0815.8,5.00,000.00,019.0,018.4,000.0,027.5,020.8,16.4,0000.0,0004.09,0007.04,0003.92
2024-03-25 06:07:00,SystemResetWarning,0815.8,5.00,000.00,018.9,018.3,000.0,027.5,020.8,16.4,0000.0,0004.09,0007.02,0003.92
2024-03-25 06:08:00,SystemResetWarning,0815.8,5.00,000.00,018.9,018.2,000.0,027.5,020.7,16.4,0000.0,0004.11,0006.41,0003.92
2024-03-25 06:09:00,SystemResetWarning,0815.8,5.00,000.00,018.9,018.1,000.0,027.5,020.7,16.4,0000.0,0004.10,0006.41,0003.91
2024-03-25 06:10:00,SystemResetWarning,0815.8,4.99,000.00,018.9,018.1,000.0,027.5,020.7,16.4,0000.0,0004.11,0006.42,0003.91
2024-03-25 06:11:00,SystemResetWarning,0815.8,5.00,000.00,018.9,018.0,000.0,027.5,020.7,16.4,0000.0,0004.10,0006.35,0003.91
2024-03-25 06:12:00,SystemResetWarning,0815.8,4.99,000.00,018.8,018.0,000.0,027.5,020.6,16.4,0000.0,0004.10,0006.34,0003.91
2024-03-25 06:13:00,SystemResetWarning,0815.8,5.01,000.00,018.8,017.9,000.0,027.5,020.6,16.4,0000.0,0004.10,0006.32,0003.91
2024-03-25 06:14:00,SystemResetWarning,0815.8,5.00,000.00,018.8,017.9,000.0,027.5,020.6,16.4,0000.0,0004.13,0006.32,0003.91
2024-03-25 06:15:00,SystemResetWarning,0815.8,5.00,000.00,018.8,017.8,000.0,027.5,020.5,16.4,0000.0,0004.12,0006.02,0003.92
2024-03-25 06:16:00,SystemResetWarning,0815.8,5.01,000.00,018.8,017.8,000.0,027.5,020.5,16.5,0000.0,0004.13,0005.96,0003.93
2024-03-25 06:17:00,SystemResetWarning,0815.8,5.00,000.00,018.7,017.8,000.0,027.5,020.5,16.5,0000.0,0004.17,0006.10,0003.94
2024-03-25 06:18:00,SystemResetWarning,0815.8,5.00,000.00,018.7,017.8,000.0,027.5,020.5,16.5,0000.0,0004.21,0006.26,0003.95
2024-03-25 06:19:00,SystemResetWarning,0815.8,4.99,000.00,018.7,017.8,000.0,027.4,020.5,16.5,0000.0,0004.19,0006.12,0003.96
2024-03-25 06:20:00,SystemResetWarning,0815.8,5.00,000.00,018.7,017.7,000.0,027.4,020.4,16.6,0000.0,0004.23,0006.26,0003.97
2024-03-25 06:21:00,SystemResetWarning,0815.8,4.99,000.00,018.7,017.7,000.0,027.4,020.4,16.6,0000.0,0004.23,0006.28,0003.97
2024-03-25 06:22:00,SystemResetWarning,0815.8,5.00,000.00,018.6,017.7,000.0,027.4,020.4,16.6,0000.0,0004.24,0006.39,0003.97
2024-03-25 06:23:00,SystemResetWarning,0815.8,5.01,000.00,018.6,017.7,000.0,027.4,020.4,16.6,0000.0,0004.24,0006.48,0003.97
2024-03-25 06:24:00,SystemResetWarning,0815.8,5.00,000.00,018.6,017.7,000.0,027.4,020.4,16.6,0000.0,0004.26,0006.61,0003.97
2024-03-25 06:25:00,SystemResetWarning,0815.8,5.00,000.00,018.6,017.7,000.0,027.4,020.4,16.6,0000.0,0004.24,0006.95,0003.97
2024-03-25 06:26:00,SystemResetWarning,0815.8,5.01,000.00,018.6,017.7,000.0,027.3,020.3,16.6,0000.0,0004.24,0006.92,0003.97
2024-03-25 06:27:00,SystemResetWarning,0815.8,5.00,000.00,018.5,017.6,000.0,027.3,020.3,16.6,0000.0,0004.23,0006.90,0003.97
2024-03-25 06:28:00,SystemResetWarning,0815.8,5.00,000.00,018.5,017.6,000.0,027.3,020.3,16.6,0000.0,0004.20,0007.59,0003.97
2024-03-25 06:29:00,SystemResetWarning,0815.8,5.00,000.00,018.5,017.6,000.0,027.3,020.3,16.7,0000.0,0004.18,0007.72,0003.96
2024-03-25 06:30:00,SystemResetWarning,0815.8,5.00,000.00,018.5,017.6,000.0,027.3,020.3,16.7,0000.0,0004.15,0007.74,0003.95
2024-03-25 06:31:00,SystemResetWarning,0815.8,5.00,000.00,018.5,017.6,000.0,027.3,020.3,16.7,0000.0,0004.14,0007.79,0003.94
2024-03-25 06:32:00,SystemResetWarning,0815.8,4.99,000.00,018.5,017.6,000.0,027.3,020.2,16.7,0000.0,0004.14,0007.86,0003.95
2024-03-25 06:33:00,SystemResetWarning,0815.8,5.00,000.00,018.4,017.5,000.0,027.2,020.2,16.7,0000.0,0004.13,0007.80,0003.94
2024-03-25 06:34:00,SystemResetWarning,0815.8,5.00,000.00,018.5,017.7,000.0,027.3,020.3,16.7,0000.0,0004.13,0008.16,0003.95
2024-03-25 06:35:00,SystemResetWarning,0815.9,5.02,000.00,018.6,018.5,000.0,027.4,020.8,16.6,0000.0,0004.12,0008.32,0003.95
2024-03-25 06:36:00,SystemResetWarning,0815.8,4.98,000.00,018.8,019.0,000.0,027.4,021.1,16.4,0000.0,0004.12,0008.12,0003.95
2024-03-25 06:37:00,SystemResetWarning,0815.9,4.99,000.00,018.9,018.9,000.0,027.4,021.0,16.3,0000.0,0004.12,0008.16,0003.95
2024-03-25 06:38:00,SystemResetWarning,0815.8,5.01,000.00,018.9,018.7,000.0,027.4,020.9,16.3,0000.0,0004.13,0008.18,0003.94
2024-03-25 06:39:00,SystemResetWarning,0815.8,5.00,000.00,018.9,018.6,000.0,027.4,020.8,16.3,0000.0,0004.12,0007.54,0003.93
2024-03-25 06:40:00,SystemResetWarning,0815.8,5.00,000.00,018.9,018.4,000.0,027.4,020.8,16.3,0000.0,0004.12,0007.40,0003.93
2024-03-25 06:41:00,SystemResetWarning,0815.8,5.01,000.00,018.8,018.3,000.0,027.4,020.7,16.3,0000.0,0004.12,0007.27,0003.93
2024-03-25 06:42:00,SystemResetWarning,0815.7,5.00,000.00,018.8,018.2,000.0,027.4,020.7,16.4,0000.0,0004.10,0007.06,0003.93
2024-03-25 06:43:00,SystemResetWarning,0815.7,5.00,000.00,018.8,018.1,000.0,027.4,020.6,16.4,0000.0,0004.11,0006.92,0003.93
2024-03-25 06:44:00,SystemResetWarning,0815.8,5.00,000.00,018.8,018.1,000.0,027.4,020.6,16.4,0000.0,0004.14,0007.00,0003.95
2024-03-25 06:45:00,SystemResetWarning,0815.7,4.99,000.00,018.8,018.0,000.0,027.4,020.6,16.4,0000.0,0004.14,0006.45,0003.94
2024-03-25 06:46:00,SystemResetWarning,0815.8,5.00,000.00,018.8,018.0,000.0,027.4,020.6,16.4,0000.0,0004.15,0007.18,0003.94
2024-03-25 06:47:00,SystemResetWarning,0815.8,5.00,000.00,018.7,017.9,000.0,027.4,020.5,16.4,0000.0,0004.15,0007.14,0003.94
2024-03-25 06:48:00,SystemResetWarning,0815.8,5.00,000.00,018.7,017.9,000.0,027.4,020.5,16.4,0000.0,0004.13,0007.06,0003.94
2024-03-25 06:49:00,SystemResetWarning,0815.8,5.01,000.00,018.7,017.9,000.0,027.4,020.5,16.5,0000.0,0004.13,0007.10,0003.94
2024-03-25 06:50:00,SystemResetWarning,0815.8,5.01,000.00,018.7,017.8,000.0,027.4,020.5,16.5,0000.0,0004.15,0007.59,0003.96
2024-03-25 06:51:00,SystemResetWarning,0815.8,5.00,000.00,018.6,017.8,000.0,027.4,020.4,16.5,0000.0,0004.16,0008.03,0003.96
2024-03-25 06:52:00,SystemResetWarning,0815.8,4.99,000.00,018.6,017.7,000.0,027.3,020.4,16.6,0000.0,0004.17,0008.27,0003.96
2024-03-25 06:53:00,SystemResetWarning,0815.8,5.00,000.00,018.6,017.7,000.0,027.3,020.4,16.6,0000.0,0004.17,0008.25,0003.96
2024-03-25 06:54:00,SystemResetWarning,0815.8,5.00,000.00,018.6,017.7,000.0,027.3,020.3,16.6,0000.0,0004.17,0008.26,0003.96
2024-03-25 06:55:00,SystemResetWarning,0815.8,4.99,000.00,018.5,017.6,000.0,027.3,020.3,16.6,0000.0,0004.14,0008.23,0003.95
2024-03-25 06:56:00,SystemResetWarning,0815.8,5.01,000.00,018.5,017.6,000.0,027.3,020.3,16.7,0000.0,0004.12,0008.16,0003.94
2024-03-25 06:57:00,SystemResetWarning,0815.8,5.01,000.00,018.5,017.5,000.0,027.3,020.2,16.7,0000.0,0004.10,0007.52,0003.93
2024-03-25 06:58:00,SystemResetWarning,0815.8,4.99,000.00,018.4,017.5,000.0,027.2,020.2,16.8,0000.0,0004.11,0007.50,0003.93
2024-03-25 06:59:00,SystemResetWarning,0815.8,4.99,000.00,018.4,017.4,000.0,027.2,020.1,16.8,0000.0,0004.12,0007.87,0003.92
